Temp
73 74 71 71 61 62 57 62 75 73 75 82 83 79 76 80 76 69 83 91 92 89 86 81 77 78 78 78 78 77 78 78 78 78 79 79 79 79 78 78 78 79 79 79 79 79 79 78 77
75 73 65 56 51 51 56 68 68 73 79 81 80 78 76 75 88 82 83 89 92 90 86 83 77 77 78 78 77 77 77 78 77 78 78 78 79 79 78 78 78 78 78 78 78 77 77 77 76
75 77 64 45 41 45 56 67 71 77 79 78 75 81 79 77 88 90 89 89 91 89 87 81 76 77 77 77 78 77 78 77 77 77 77 78 78 78 78 77 77 77 76 76 77 76 76 76 76
73 70 68 56 43 49 58 68 73 75 78 79 79 73 80 89 87 91 89 88 90 89 87 76 76 77 77 77 77 78 77 77 77 77 77 77 77 78 77 76 75 75 75 76 76 76 75 75 75
73 68 56 54 56 63 65 69 75 72 76 75 79 73 77 84 87 86 88 88 89 89 83 80 76 77 77 77 77 77 77 76 77 77 77 77 77 77 76 75 75 75 75 76 76 76 75 74 75
57 63 53 51 58 65 71 73 75 73 76 75 75 76 78 86 83 84 87 87 90 85 79 80 75 76 76 76 76 76 76 76 76 76 76 76 76 76 75 75 75 75 75 75 75 75 74 73 73
51 56 52 55 59 63 67 76 71 73 74 75 81 71 81 79 83 84 86 88 88 81 78 79 81 78 73 74 74 75 75 75 75 75 75 74 74 74 75 74 75 75 75 74 74 74 73 72 72
52 53 51 56 57 60 72 71 71 72 73 84 84 71 74 82 82 83 84 85 81 76 77 79 80 82 81 78 72 72 72 72 73 72 71 70 71 71 73 72 73 73 73 73 72 72 71 69 69
56 43 42 52 56 61 73 69 71 76 74 79 82 80 82 83 81 79 79 77 73 73 75 78 79 82 82 80 74 70 69 69 69 69 68 72 78 78 77 69 69 70 70 69 69 68 67 66 65
46 41 47 58 62 63 69 70 69 66 69 72 75 79 77 78 77 75 72 71 71 70 73 78 80 81 80 78 78 77 75 77 76 76 78 76 74 71 68 66 67 68 68 68 69 70 70 71 67
46 39 54 56 59 64 66 68 72 64 62 71 70 74 74 77 74 74 73 74 74 75 75 78 80 82 81 78 79 75 75 75 74 72 69 68 67 67 65 65 68 71 69 72 74 74 74 75 73
42 49 50 51 59 59 60 66 64 65 67 76 78 77 76 75 73 74 74 76 75 76 75 78 80 79 78 80 77 77 74 73 70 68 68 69 67 67 68 69 73 74 76 77 75 73 70 67 70
38 47 53 53 52 53 54 59 63 65 71 77 78 77 76 74 74 76 78 78 78 75 74 76 77 74 75 75 77 73 71 71 67 69 69 70 71 71 69 68 73 73 73 75 72 70 68 67 67
38 37 43 51 48 53 47 51 59 65 71 71 73 74 76 75 76 76 76 76 74 75 72 75 73 73 73 73 72 71 70 69 69 71 71 74 74 71 68 67 71 71 73 73 70 66 65 66 66
43 34 42 41 46 44 46 43 48 63 69 68 69 71 73 74 76 76 75 75 75 75 74 73 73 72 71 70 69 69 69 70 67 69 72 73 74 71 68 69 70 71 71 69 66 66 66 67 67
37 36 31 45 44 47 42 35 50 59 63 65 67 69 70 72 75 78 77 75 76 76 73 71 72 71 69 68 67 67 69 68 66 68 71 72 73 72 71 70 69 69 68 67 65 66 64 64 63
34 27 32 41 49 49 41 36 51 58 60 63 66 67 69 70 74 77 77 75 74 73 71 69 69 69 68 67 66 67 66 66 66 68 72 71 72 72 71 70 67 66 66 68 69 67 66 63 60
27 27 33 37 47 47 43 37 49 57 57 60 64 67 68 69 71 76 78 77 74 73 70 69 67 66 65 65 64 63 63 63 63 69 70 69 69 71 71 68 66 67 67 67 67 66 66 63 58
34 29 27 34 41 40 43 38 45 55 52 58 62 65 67 68 73 75 76 75 73 72 69 65 65 65 64 62 60 60 59 60 61 66 67 67 70 70 69 67 67 67 66 66 66 64 61 60 57
32 28 29 36 42 35 44 44 47 51 51 53 58 60 66 68 70 72 74 74 71 69 66 65 64 63 64 63 63 62 60 60 60 61 63 67 69 69 68 66 66 66 65 64 63 62 59 59 62
29 28 30 31 34 36 39 39 44 50 54 56 61 64 66 67 68 70 71 72 70 69 63 63 63 62 63 64 60 56 54 54 55 56 58 63 68 67 67 66 66 65 64 62 61 61 60 57 59
25 37 36 34 32 26 35 29 42 49 49 53 58 63 63 67 69 70 69 69 69 68 64 63 62 62 62 60 60 58 58 55 55 57 59 59 67 66 66 66 66 65 64 62 62 63 62 60 55
27 32 32 36 32 31 30 28 42 49 48 51 55 59 63 67 68 68 68 70 68 68 63 63 61 61 60 60 62 61 59 59 56 56 56 57 62 65 65 65 65 63 63 63 63 62 62 61 58
30 28 32 34 32 22 30 29 24 31 32 30 38 43 48 55 66 68 70 69 67 65 63 61 60 59 59 60 60 62 61 57 55 53 53 54 56 61 64 64 64 64 63 62 61 61 61 63 61
26 25 21 20 21 22 35 29 20 27 29 31 32 36 43 49 53 63 67 65 65 59 60 60 59 57 58 59 59 61 61 59 57 54 54 53 53 55 59 60 60 61 62 61 61 60 60 59 57
23 24 20 16 19 24 30 25 20 28 31 34 34 36 40 43 52 57 63 66 62 56 57 57 57 56 57 58 58 60 60 59 58 57 56 54 54 55 58 58 59 60 60 60 60 59 58 56 52
23 21 24 21 30 25 25 25 27 31 30 31 32 33 33 36 39 43 51 62 58 55 55 55 55 54 56 55 56 55 56 56 54 56 56 55 55 54 54 56 58 59 59 58 58 56 52 53 51
27 29 20 25 20 19 21 21 17 22 24 28 29 30 31 33 35 37 39 52 56 54 53 54 54 53 54 54 54 53 53 54 53 52 50 50 48 48 49 49 51 50 50 53 53 51 50 49 48
24 22 24 21 22 18 21 17 23 23 26 26 28 30 30 30 32 34 35 38 48 51 50 50 50 50 50 51 51 50 49 50 50 50 48 46 46 45 43 43 43 44 44 44 45 45 47 47 46
29 21 24 20 19 23 23 17 27 26 28 28 28 30 31 30 31 32 34 35 36 41 45 46 46 47 47 47 45 42 43 46 47 47 45 45 45 45 44 44 43 42 42 42 41 40 40 43 43
MSLP
1012.35 1012.31 1012.15 1011.48 1010.43 1008.23 1006.17 1005.04 1004.08 1003.17 1003.03 1003.78 1003.98 1004.63 1004.92 1004.94 1005.01 1006.06 1007.32 1006.86 1007.14 1008.27 1009.62 1010.84 1011.54 1011.99 1012.51 1012.96 1013.29 1013.72 1014.09 1014.30 1014.64 1014.97 1015.20 1015.43 1015.75 1015.92 1016.17 1016.42 1016.59 1016.79 1016.91 1017.16 1017.38 1017.63 1017.83 1018.14 1018.30
1012.02 1012.32 1012.58 1012.21 1010.45 1007.60 1005.61 1004.97 1003.84 1003.65 1003.54 1004.42 1004.80 1005.30 1005.15 1004.77 1004.87 1006.11 1006.84 1007.25 1007.46 1008.23 1009.53 1010.52 1011.57 1012.01 1012.60 1013.07 1013.54 1013.92 1014.23 1014.45 1014.82 1015.19 1015.48 1015.70 1016.03 1016.26 1016.57 1016.84 1016.98 1017.23 1017.40 1017.67 1017.96 1018.17 1018.47 1018.71 1018.84
1011.74 1011.58 1011.73 1011.89 1010.37 1007.16 1005.42 1004.68 1004.00 1003.76 1004.27 1004.64 1005.14 1005.13 1004.91 1004.84 1004.75 1005.20 1006.74 1007.44 1007.79 1008.37 1009.40 1010.55 1011.54 1012.10 1012.62 1013.10 1013.58 1014.03 1014.31 1014.64 1014.98 1015.38 1015.69 1016.01 1016.23 1016.49 1016.81 1017.10 1017.58 1017.78 1018.00 1018.24 1018.52 1018.71 1019.01 1019.20 1019.38
1011.24 1011.30 1010.44 1008.36 1007.70 1007.51 1006.14 1004.76 1004.26 1003.88 1004.20 1004.65 1004.60 1004.99 1005.34 1005.05 1005.19 1005.61 1007.00 1007.72 1007.86 1008.54 1009.43 1011.04 1011.62 1012.11 1012.64 1013.24 1013.70 1014.09 1014.40 1014.83 1015.19 1015.59 1015.90 1016.24 1016.56 1016.87 1017.10 1017.49 1017.90 1018.26 1018.52 1018.71 1019.07 1019.34 1019.58 1019.80 1019.95
1010.64 1009.79 1008.42 1006.10 1005.05 1005.28 1005.16 1004.77 1003.90 1003.55 1003.47 1004.28 1004.33 1004.41 1004.79 1005.53 1006.31 1006.88 1007.23 1007.77 1007.84 1008.61 1009.70 1011.06 1011.83 1012.23 1012.69 1013.29 1013.79 1014.19 1014.63 1015.05 1015.38 1015.82 1016.18 1016.52 1016.84 1017.30 1017.66 1017.94 1018.39 1018.71 1018.97 1019.26 1019.57 1019.89 1020.12 1020.40 1020.61
1010.53 1009.51 1006.67 1004.14 1003.98 1004.05 1003.22 1003.33 1003.37 1003.49 1003.37 1004.19 1004.45 1004.31 1004.58 1005.43 1006.47 1007.04 1007.30 1007.73 1007.97 1009.04 1010.22 1011.07 1012.06 1012.47 1012.90 1013.36 1013.84 1014.35 1014.87 1015.33 1015.65 1015.97 1016.37 1016.73 1017.13 1017.57 1018.07 1018.45 1018.79 1019.05 1019.44 1019.77 1020.02 1020.30 1020.66 1021.01 1021.17
1010.29 1008.46 1005.09 1004.72 1003.29 1002.74 1002.53 1002.70 1002.87 1002.91 1003.07 1002.96 1003.70 1004.17 1004.25 1005.59 1006.37 1007.12 1007.41 1007.77 1008.29 1009.82 1010.65 1011.10 1011.98 1012.62 1013.17 1013.64 1014.13 1014.63 1015.17 1015.55 1015.85 1016.27 1016.54 1016.84 1017.32 1017.83 1018.41 1018.89 1019.33 1019.57 1019.82 1020.26 1020.50 1020.90 1021.27 1021.57 1021.71
1010.62 1009.03 1006.59 1004.02 1002.81 1001.46 1002.04 1002.52 1003.63 1003.48 1002.74 1003.06 1003.32 1003.78 1003.86 1004.83 1006.38 1007.15 1007.55 1007.87 1009.09 1010.34 1010.77 1011.19 1011.69 1012.42 1013.04 1013.78 1014.36 1014.98 1015.47 1015.86 1016.22 1016.64 1017.07 1017.42 1017.87 1018.38 1018.79 1019.32 1019.73 1020.13 1020.43 1020.84 1021.16 1021.55 1021.83 1022.13 1022.32
1010.83 1008.95 1005.20 1002.87 1003.35 1002.87 1002.17 1002.02 1003.18 1004.28 1003.74 1003.00 1002.94 1004.00 1004.33 1004.63 1006.34 1007.17 1007.66 1008.58 1009.71 1010.63 1010.84 1011.17 1011.53 1012.03 1012.73 1013.59 1014.62 1015.28 1015.86 1016.27 1016.67 1017.05 1017.38 1017.69 1018.10 1018.69 1019.06 1020.01 1020.40 1020.72 1021.18 1021.69 1022.01 1022.24 1022.49 1022.85 1023.04
1010.39 1008.29 1003.60 1005.99 1004.74 1003.31 1002.73 1002.22 1003.11 1004.45 1003.81 1002.90 1003.20 1004.34 1005.52 1005.79 1006.37 1006.94 1007.84 1008.58 1009.55 1010.31 1010.72 1011.07 1011.48 1011.89 1012.59 1013.52 1014.57 1015.17 1016.03 1016.34 1016.83 1017.30 1017.48 1017.70 1018.44 1019.25 1019.96 1020.63 1021.10 1021.51 1021.91 1022.19 1022.46 1022.60 1022.65 1022.79 1023.44
1009.73 1007.20 1007.35 1006.30 1005.83 1004.86 1003.55 1002.77 1003.10 1003.88 1003.26 1002.82 1003.19 1004.15 1005.34 1005.45 1006.20 1006.81 1007.68 1008.00 1008.45 1009.40 1010.42 1010.92 1011.25 1011.58 1012.39 1013.32 1014.14 1015.19 1015.80 1016.39 1017.02 1017.52 1018.10 1018.68 1019.30 1020.01 1020.62 1021.21 1021.69 1021.89 1022.10 1022.29 1022.43 1022.78 1023.03 1023.14 1023.54
1009.92 1008.42 1008.33 1007.65 1006.46 1005.82 1004.77 1004.12 1003.56 1003.61 1003.58 1003.39 1003.22 1004.20 1004.94 1005.24 1005.87 1006.32 1007.13 1007.63 1008.54 1009.01 1009.81 1010.41 1011.10 1011.66 1012.46 1013.08 1013.93 1014.87 1015.68 1016.38 1017.23 1017.90 1018.32 1018.71 1019.41 1020.17 1020.54 1021.14 1021.34 1021.62 1021.81 1022.03 1022.56 1023.32 1024.06 1024.26 1024.46
1010.54 1009.39 1008.10 1008.29 1007.82 1006.96 1006.76 1004.68 1003.88 1003.53 1004.06 1003.63 1003.15 1003.63 1004.26 1005.03 1005.63 1006.17 1006.58 1007.20 1007.90 1008.50 1009.68 1010.50 1010.96 1011.75 1012.58 1013.21 1013.77 1014.90 1015.90 1016.59 1017.47 1017.93 1018.48 1018.82 1019.15 1019.88 1020.74 1021.47 1021.55 1021.84 1022.27 1022.40 1023.26 1024.00 1024.54 1024.85 1025.15
1011.58 1010.88 1009.41 1008.21 1008.04 1007.36 1007.48 1006.40 1004.82 1003.77 1004.24 1004.02 1003.67 1003.36 1003.95 1004.56 1005.10 1005.82 1006.35 1006.89 1007.54 1008.39 1009.45 1010.36 1010.97 1011.82 1012.47 1013.36 1014.09 1014.96 1015.96 1016.85 1017.51 1018.08 1018.48 1018.61 1018.97 1020.03 1020.93 1021.62 1021.61 1022.12 1022.43 1022.84 1023.74 1024.61 1024.98 1025.21 1025.66
1011.63 1010.92 1009.52 1008.68 1008.55 1008.34 1008.12 1006.99 1004.98 1004.79 1003.83 1003.87 1003.65 1003.73 1003.82 1004.29 1004.81 1005.06 1005.90 1006.62 1007.38 1008.10 1009.08 1009.95 1010.93 1011.85 1012.73 1013.46 1014.22 1015.04 1016.02 1016.78 1017.58 1018.09 1018.35 1018.89 1019.39 1020.16 1020.85 1021.27 1021.80 1022.34 1022.98 1023.52 1024.37 1024.80 1025.17 1025.46 1026.12
1011.62 1010.96 1009.02 1008.09 1008.55 1007.84 1009.07 1006.72 1005.77 1005.62 1004.18 1003.46 1003.60 1003.62 1003.90 1004.17 1004.42 1004.68 1005.63 1006.52 1007.21 1007.96 1008.94 1009.94 1010.96 1011.84 1012.81 1013.53 1014.40 1015.17 1015.87 1016.82 1017.54 1018.11 1018.50 1019.23 1019.63 1020.29 1020.73 1021.33 1021.98 1022.83 1023.60 1024.00 1024.39 1024.79 1025.60 1026.04 1026.71
1011.44 1010.49 1008.80 1007.43 1007.39 1007.33 1007.58 1006.67 1006.07 1005.37 1004.50 1003.61 1003.42 1003.53 1003.68 1004.02 1004.25 1004.39 1005.22 1006.26 1007.07 1007.88 1008.72 1009.86 1010.68 1011.47 1012.58 1013.52 1014.41 1015.20 1016.07 1017.00 1017.62 1018.21 1018.62 1019.26 1019.75 1020.38 1020.86 1021.52 1022.43 1023.14 1023.52 1023.78 1024.18 1024.79 1025.48 1026.29 1027.37
1010.84 1010.46 1008.98 1007.24 1006.54 1006.55 1006.41 1006.72 1006.37 1005.16 1004.87 1004.00 1003.56 1003.37 1003.31 1003.67 1004.00 1004.32 1004.67 1005.74 1006.76 1007.56 1008.68 1009.66 1010.38 1011.28 1012.37 1013.51 1014.56 1015.65 1016.49 1017.31 1017.81 1018.12 1018.74 1019.44 1019.73 1020.45 1020.90 1021.78 1022.56 1022.88 1023.14 1023.78 1024.31 1024.91 1025.59 1026.50 1027.62
1011.20 1010.64 1009.95 1008.74 1007.81 1006.71 1005.61 1006.12 1005.38 1005.12 1004.86 1004.16 1003.56 1003.20 1002.97 1003.39 1003.91 1004.29 1004.57 1005.38 1006.57 1007.51 1008.38 1009.36 1010.34 1011.36 1012.11 1013.31 1014.42 1015.70 1016.39 1017.34 1018.06 1018.34 1018.89 1019.26 1019.74 1020.39 1021.01 1021.80 1022.42 1022.90 1023.30 1023.86 1024.43 1025.18 1025.87 1026.95 1028.06
1011.65 1011.03 1009.88 1009.02 1007.89 1007.84 1005.90 1005.17 1005.46 1005.23 1004.97 1005.14 1004.10 1003.41 1003.06 1003.31 1003.64 1004.06 1004.47 1005.14 1006.27 1007.30 1008.50 1009.51 1010.32 1011.05 1011.94 1012.65 1013.84 1015.08 1016.19 1017.22 1017.89 1018.50 1019.09 1019.12 1019.74 1020.32 1020.95 1021.69 1022.28 1022.74 1023.37 1023.99 1024.72 1025.35 1026.09 1026.94 1027.26
1011.98 1011.21 1010.03 1009.27 1008.50 1007.64 1006.48 1005.62 1005.04 1004.75 1004.85 1005.20 1004.34 1003.62 1003.55 1003.28 1003.45 1003.91 1004.47 1004.90 1005.95 1007.12 1008.38 1009.18 1010.06 1010.90 1011.94 1012.86 1013.60 1015.16 1016.33 1017.53 1018.38 1018.84 1019.31 1019.40 1019.77 1020.40 1020.91 1021.54 1022.09 1022.64 1023.19 1023.96 1024.69 1025.33 1025.85 1026.46 1027.25
1011.69 1010.77 1009.74 1009.25 1008.84 1007.94 1007.62 1005.78 1004.85 1004.77 1005.01 1005.27 1004.77 1003.77 1003.63 1003.42 1003.55 1003.92 1004.46 1005.02 1005.86 1007.10 1008.37 1009.14 1010.03 1010.96 1012.04 1012.79 1013.25 1014.06 1015.28 1016.59 1017.65 1018.27 1018.92 1019.51 1019.69 1020.41 1020.87 1021.42 1022.02 1022.61 1023.20 1023.97 1024.58 1025.05 1025.52 1026.15 1026.74
1012.26 1011.69 1010.62 1009.28 1008.73 1008.61 1008.44 1007.91 1004.50 1005.30 1005.68 1005.64 1005.58 1004.95 1004.47 1004.00 1003.75 1003.95 1004.42 1004.96 1005.88 1007.14 1008.11 1009.09 1009.99 1010.74 1011.56 1012.54 1013.10 1013.47 1014.83 1015.95 1017.04 1018.24 1019.02 1019.54 1019.77 1020.32 1020.88 1021.31 1021.81 1022.48 1023.02 1023.64 1024.22 1024.85 1025.27 1025.86 1026.52
1013.31 1011.94 1010.32 1009.30 1009.02 1008.88 1008.49 1008.88 1009.14 1009.15 1010.51 1010.23 1009.38 1008.26 1007.52 1006.16 1004.75 1004.60 1004.61 1005.21 1006.09 1007.15 1008.17 1008.93 1009.72 1010.55 1011.36 1012.31 1013.07 1012.96 1014.10 1015.37 1016.61 1017.95 1018.82 1019.46 1019.88 1020.16 1020.69 1021.18 1021.76 1022.31 1022.81 1023.29 1023.99 1024.60 1025.15 1025.56 1026.09
1013.67 1012.24 1010.50 1009.32 1009.15 1008.32 1008.12 1009.78 1012.70 1013.00 1013.62 1013.38 1012.34 1011.20 1009.82 1008.50 1007.03 1005.66 1005.19 1005.58 1006.30 1007.41 1007.99 1008.74 1009.50 1010.41 1011.33 1012.10 1012.74 1013.12 1013.83 1014.58 1015.31 1016.54 1017.85 1018.92 1019.60 1020.06 1020.44 1021.10 1021.69 1022.24 1022.65 1023.32 1023.93 1024.46 1025.00 1025.50 1026.13
1013.53 1012.69 1011.32 1009.63 1008.30 1008.54 1009.48 1010.64 1013.93 1015.05 1015.44 1014.59 1013.81 1013.16 1011.72 1010.46 1009.11 1007.65 1006.35 1005.88 1006.97 1007.71 1008.30 1008.76 1009.40 1010.20 1011.22 1011.79 1012.47 1013.13 1013.85 1014.67 1015.24 1016.18 1016.86 1018.19 1018.92 1019.43 1020.11 1020.99 1021.55 1022.20 1022.61 1023.29 1023.86 1024.40 1024.86 1025.67 1026.25
1013.84 1013.40 1013.35 1011.22 1008.62 1009.06 1010.44 1012.82 1014.54 1015.02 1015.24 1014.91 1014.43 1014.24 1013.75 1013.03 1011.91 1010.26 1008.60 1006.92 1007.37 1007.82 1008.63 1009.09 1009.62 1010.32 1010.99 1011.59 1012.33 1013.05 1013.78 1014.61 1015.32 1016.37 1017.03 1017.85 1018.74 1019.23 1019.89 1020.52 1021.08 1021.69 1022.26 1022.98 1023.68 1024.50 1025.21 1025.76 1026.26
1014.68 1014.64 1013.56 1011.91 1010.40 1009.93 1011.78 1013.78 1015.65 1015.82 1016.32 1016.29 1015.75 1015.78 1015.21 1014.25 1013.19 1012.01 1010.71 1008.79 1008.11 1008.39 1009.00 1009.43 1009.84 1010.25 1010.89 1011.46 1012.07 1012.86 1013.74 1014.60 1015.39 1016.31 1017.21 1017.90 1018.84 1019.37 1019.85 1020.64 1021.28 1021.82 1022.58 1023.03 1023.79 1024.78 1025.48 1025.69 1026.36
1015.29 1015.24 1014.80 1014.00 1012.76 1011.94 1012.55 1015.57 1017.90 1018.16 1017.84 1017.26 1017.10 1016.71 1016.37 1015.56 1014.34 1013.42 1012.34 1011.02 1009.65 1009.15 1009.36 1009.92 1010.35 1010.76 1011.14 1011.55 1012.08 1013.01 1013.88 1014.67 1015.40 1016.12 1017.03 1017.81 1018.78 1019.50 1020.42 1020.91 1021.97 1022.55 1023.02 1023.90 1024.33 1024.97 1025.31 1025.69 1026.32
1017.93 1017.45 1016.26 1015.01 1014.36 1013.96 1014.13 1016.53 1018.18 1018.57 1018.18 1018.02 1018.00 1017.45 1016.87 1016.37 1015.68 1014.65 1013.61 1012.51 1011.51 1010.71 1010.34 1010.43 1010.85 1011.18 1011.36 1011.74 1012.29 1013.16 1013.88 1014.71 1015.54 1016.14 1017.02 1017.68 1018.64 1018.14 1019.37 1020.23 1021.45 1021.64 1022.66 1024.38 1024.44 1025.37 1025.76 1025.91 1026.60
Wind_Speed
6 3 3 3 8 9 21 24 21 18 16 16 7 10 9 13 8 3 3 8 18 20 21 20 19 17 15 17 16 16 14 15 14 14 15 15 15 14 13 14 15 16 18 18 19 20 20 19 19
9 4 4 3 8 18 18 23 26 14 12 10 9 10 8 13 13 12 8 8 18 19 20 20 18 18 16 17 16 15 14 14 15 14 14 15 14 14 15 14 15 17 18 19 20 20 19 18 17
14 15 5 4 5 18 18 21 22 17 12 11 10 7 9 8 11 3 7 12 17 19 20 16 19 18 16 15 14 14 15 14 15 14 14 14 15 16 16 16 18 17 17 18 19 18 17 17 16
10 7 10 16 20 13 21 16 18 22 20 18 14 7 4 5 1 2 9 13 17 18 19 21 19 18 18 16 14 14 16 15 15 14 15 15 16 17 18 18 18 18 18 19 18 17 17 16 16
13 9 16 23 29 25 29 29 23 20 23 18 18 14 8 8 8 5 11 14 19 18 17 20 19 17 19 17 15 15 15 15 15 15 16 17 18 18 20 20 19 19 19 19 19 19 19 17 16
10 14 18 27 27 28 23 23 27 22 20 21 21 18 15 12 12 9 12 15 18 16 14 18 17 16 17 17 16 16 15 14 14 15 17 18 19 20 20 20 19 20 19 19 20 20 20 19 17
15 17 26 28 26 30 30 20 22 22 23 23 17 19 16 13 10 11 13 14 16 13 11 15 18 15 13 14 15 15 15 14 15 15 17 20 21 22 22 20 19 19 20 19 19 20 20 19 18
5 15 31 29 25 29 25 23 17 24 23 20 18 11 18 17 13 12 14 15 17 10 12 16 16 17 16 14 14 14 14 14 14 14 14 16 16 16 19 20 21 20 21 21 21 20 21 21 20
9 10 25 37 31 24 21 24 19 15 24 25 22 18 3 18 17 15 15 13 10 9 13 14 16 17 16 15 13 15 15 15 16 15 16 16 13 16 17 15 20 21 22 21 21 21 21 21 20
14 19 37 20 23 23 25 21 20 18 25 28 17 14 6 15 16 18 18 17 17 13 14 14 16 16 15 11 16 15 15 13 11 14 15 10 11 11 13 16 19 19 19 19 18 15 13 13 8
8 28 20 22 20 20 22 26 16 22 24 27 22 19 13 17 17 18 18 20 24 20 15 16 17 16 17 13 10 7 7 8 9 10 10 12 11 10 9 8 7 9 10 8 10 9 7 10 9
27 28 18 11 17 16 24 20 22 24 23 21 22 20 19 19 18 19 19 19 20 21 19 19 18 14 15 12 9 11 8 8 6 9 12 9 7 9 8 5 9 8 6 9 8 7 10 9 12
15 23 28 19 22 10 15 27 26 23 22 23 18 22 21 18 18 18 17 19 20 20 19 18 17 13 13 12 10 9 9 8 9 9 10 8 9 8 8 7 7 8 7 8 10 9 8 10 11
12 17 22 23 14 19 14 19 22 26 19 22 14 20 22 21 21 18 18 18 16 19 18 18 16 15 13 12 13 9 9 10 8 10 10 11 8 9 8 7 7 8 7 8 9 8 7 8 9
12 18 18 13 13 11 6 16 28 23 23 25 23 16 18 20 22 20 20 20 18 17 19 19 18 17 14 15 12 10 9 10 8 7 10 10 10 12 10 8 8 8 7 11 9 9 8 8 10
13 13 12 16 15 16 12 6 17 25 21 24 22 21 17 21 20 19 19 19 19 17 20 16 15 19 15 15 11 9 11 9 7 6 8 12 12 14 11 8 8 8 8 8 8 8 8 8 9
9 12 15 20 19 23 18 3 19 16 21 21 20 21 19 17 20 20 20 21 18 17 17 17 17 19 17 15 11 11 12 9 7 7 9 13 13 12 10 8 9 10 8 8 8 8 9 9 9
8 8 9 14 20 20 21 12 14 15 18 18 19 20 22 19 19 19 19 19 18 18 15 19 15 17 17 12 11 8 9 8 7 9 9 12 10 12 10 9 11 10 8 8 8 10 9 9 10
12 12 14 16 14 12 20 12 16 12 4 21 19 21 20 20 19 18 16 17 18 18 20 15 16 17 14 12 11 10 9 9 8 7 12 12 12 12 11 9 10 9 9 10 10 10 12 10 10
11 12 17 17 8 4 19 20 22 21 14 13 17 15 18 17 19 17 16 18 19 17 16 16 16 17 14 13 11 8 9 6 7 7 7 10 13 12 11 11 10 10 9 11 10 11 9 8 7
13 13 13 15 5 1 5 16 14 24 18 20 20 18 19 19 18 16 17 17 18 20 15 15 16 16 14 14 11 8 7 6 4 7 7 7 13 12 11 12 10 11 9 9 11 11 13 7 3
12 10 16 12 8 3 3 10 19 19 24 22 16 16 12 18 18 16 16 16 17 16 15 16 16 18 14 15 15 20 12 11 6 8 8 7 12 12 11 12 11 10 8 10 10 9 7 8 6
5 16 13 14 10 6 3 4 9 24 20 21 17 15 16 16 16 14 14 16 16 16 14 16 17 16 14 16 15 16 14 10 9 6 10 8 9 12 11 11 11 11 8 10 11 11 8 7 7
9 9 8 11 7 8 8 4 6 6 15 13 18 18 18 15 11 14 13 13 14 13 14 15 17 14 14 15 15 17 20 14 13 9 9 8 7 8 11 11 10 10 9 11 10 9 9 8 7
10 8 5 7 8 3 14 6 7 10 12 11 14 16 16 14 13 11 14 12 12 12 14 13 17 14 14 16 14 15 16 17 21 18 12 12 9 8 12 11 10 8 8 9 9 9 8 7 6
15 5 5 5 5 8 7 5 6 7 8 12 14 15 16 17 13 14 13 13 12 8 9 13 16 16 15 16 14 13 12 9 10 14 14 11 11 11 12 11 11 11 11 9 9 7 6 7 5
7 3 5 6 2 5 6 6 5 16 17 19 19 19 18 16 16 17 20 11 10 10 11 11 12 14 15 14 11 10 10 11 9 10 9 9 10 9 11 12 12 11 11 10 9 6 7 7 5
7 6 2 2 4 6 5 6 9 20 20 17 18 16 16 16 16 15 14 13 7 8 6 10 13 14 14 13 12 10 10 10 11 11 10 10 7 7 9 9 9 9 6 7 9 7 7 8 4
14 8 6 3 4 5 5 5 9 13 14 15 15 14 13 14 15 14 12 12 7 4 7 6 8 11 11 12 11 12 10 10 11 10 10 11 12 11 9 10 8 7 8 7 7 6 7 8 7
18 13 7 6 7 6 5 4 8 10 11 13 12 14 12 11 12 12 11 9 10 7 3 6 6 9 10 11 10 10 10 10 10 9 10 11 11 14 12 13 15 12 12 7 8 6 4 6 6
Wind_Direction
232 217 342 279 220 227 227 226 245 231 215 209 221 211 232 229 210 166 155 152 148 155 152 158 151 150 149 145 138 141 148 137 136 139 135 131 130 123 121 120 120 116 112 112 112 107 101 99 99
178 164 41 2 237 220 222 224 226 214 204 216 182 221 229 228 231 112 141 166 152 154 153 159 153 150 151 146 146 151 148 139 138 139 137 134 128 125 121 118 115 112 109 109 107 102 101 99 95
252 181 174 152 218 225 222 219 227 220 189 186 184 230 208 223 212 143 79 161 157 155 154 149 155 151 149 146 150 153 143 134 133 140 139 136 132 126 126 121 109 104 103 104 100 99 97 94 93
214 215 253 228 216 223 223 224 221 206 217 193 207 195 206 220 228 131 127 160 167 160 154 143 155 153 150 154 158 151 138 135 135 140 142 136 131 125 122 115 107 105 104 103 101 98 95 95 92
222 225 231 232 237 219 208 226 225 218 213 204 217 212 192 175 121 143 164 175 167 165 134 152 157 156 153 156 153 140 139 140 139 142 140 135 128 120 114 108 108 107 104 102 101 98 92 88 85
219 225 235 231 233 226 229 213 231 212 206 206 218 222 209 137 172 159 165 181 168 146 142 152 156 155 153 155 146 139 140 138 139 140 140 137 127 120 117 112 108 105 104 103 102 95 92 88 86
227 216 232 242 230 233 222 221 215 221 213 210 200 225 215 152 171 161 166 177 158 149 163 152 163 155 148 139 137 135 133 134 135 134 142 145 132 126 119 112 108 104 101 100 100 100 96 92 82
246 246 240 237 234 236 217 209 202 227 224 226 193 227 221 170 149 163 162 173 136 153 166 157 160 164 164 153 130 126 122 120 121 116 107 105 107 112 112 113 105 103 98 97 98 98 94 88 76
279 221 235 231 230 236 235 222 188 226 247 228 216 209 12 111 148 156 160 138 150 166 168 165 161 167 163 157 132 121 113 111 115 116 120 130 129 125 117 98 98 95 97 96 96 94 91 83 75
223 231 236 235 246 243 239 234 203 210 227 232 194 205 146 150 161 163 167 171 171 175 173 176 168 165 155 148 155 147 139 143 132 133 147 120 101 95 97 92 97 97 102 102 95 96 111 94 74
218 245 250 242 252 264 259 238 212 203 223 223 202 196 192 175 175 179 183 179 178 180 173 180 169 170 155 156 157 148 150 140 139 111 107 110 110 105 106 108 112 118 124 117 120 87 65 83 86
249 243 244 283 244 249 249 263 204 224 218 223 213 205 193 186 181 186 188 187 182 180 178 178 167 166 162 158 155 152 144 141 125 120 125 127 127 123 118 120 129 133 127 124 104 92 96 87 78
266 260 256 231 272 242 300 249 241 222 234 237 228 200 206 198 189 191 194 189 186 179 172 180 167 151 160 147 152 143 137 134 131 136 140 143 137 126 114 123 142 118 131 121 111 103 98 89 83
294 326 284 251 236 267 245 261 248 231 210 239 221 219 218 198 199 196 192 192 193 176 169 173 161 154 152 148 143 139 138 133 146 148 163 160 146 131 131 142 136 134 130 117 110 106 96 96 91
267 299 289 244 270 225 1 242 248 257 225 219 227 219 222 212 213 200 192 189 190 181 173 174 165 154 155 144 139 140 138 142 139 158 145 146 146 139 141 143 139 133 117 114 116 114 107 99 89
283 291 272 223 226 228 216 244 237 239 251 218 213 215 217 217 210 200 190 191 191 189 177 173 167 162 152 147 140 139 138 138 140 145 145 160 149 151 144 143 129 126 131 128 126 120 107 96 94
229 267 272 237 214 220 199 167 243 243 229 227 214 215 212 211 215 209 193 194 192 188 178 171 164 158 149 144 137 137 133 137 137 155 161 159 150 152 144 139 131 144 141 142 134 127 125 119 99
250 254 302 260 208 228 207 190 258 222 224 234 212 216 213 209 213 217 196 191 193 191 170 169 165 160 145 139 133 127 127 134 141 157 162 154 150 160 148 141 150 150 145 138 137 130 122 112 108
295 295 299 295 307 273 225 191 193 224 245 229 216 225 211 207 215 210 202 190 191 183 184 170 168 161 150 146 143 143 148 150 144 158 164 157 155 164 151 148 153 153 146 145 141 132 128 122 130
284 270 272 284 259 300 224 218 204 217 213 240 226 230 219 214 208 208 210 188 190 183 175 171 166 159 168 157 153 159 148 151 144 141 155 160 165 163 159 157 159 157 149 147 144 145 136 133 180
250 257 267 260 335 192 254 234 217 213 215 212 225 224 225 222 213 207 209 202 187 183 176 179 168 165 169 163 127 112 100 86 117 145 157 178 168 168 166 163 161 158 151 154 154 157 151 148 173
251 251 255 254 261 306 17 235 218 208 202 203 228 217 232 217 219 209 208 206 188 185 171 174 162 168 165 158 150 158 164 159 170 172 168 170 170 173 171 166 164 158 156 159 165 163 170 154 154
289 331 300 249 220 283 202 277 227 202 210 200 205 229 236 245 221 215 209 206 187 182 171 171 168 168 162 175 175 166 167 163 149 154 157 164 170 174 175 173 169 164 166 165 171 169 164 171 150
331 298 261 232 180 236 212 226 48 353 354 354 341 335 332 319 227 227 222 196 192 177 182 170 167 164 166 175 182 173 176 161 155 152 160 167 167 174 180 178 173 174 172 169 169 174 169 177 160
342 242 200 158 184 226 160 173 52 14 360 350 345 335 318 314 324 270 228 202 193 182 180 173 168 158 174 179 178 186 183 174 172 164 173 166 169 177 180 176 178 177 176 168 166 172 175 157 159
303 332 338 186 158 139 153 139 99 31 352 4 10 351 348 348 322 291 265 213 183 182 185 172 171 166 175 176 173 179 178 182 186 189 170 178 184 177 175 180 174 176 174 172 170 175 156 151 157
331 29 336 286 253 134 115 107 186 1 9 3 3 359 349 337 330 314 324 251 177 165 177 173 169 169 179 171 162 157 158 170 160 174 179 181 183 171 168 177 178 174 170 171 172 169 154 162 144
35 328 46 316 196 179 92 72 7 357 351 355 356 351 340 334 337 329 327 304 182 163 161 177 176 172 174 165 163 160 157 158 154 152 151 150 141 135 141 142 152 134 120 146 155 162 161 139 129
7 18 356 248 7 328 149 90 12 349 349 357 347 342 342 335 333 330 330 332 328 144 142 156 165 170 169 173 158 154 147 153 155 159 156 151 142 139 127 120 106 110 120 117 120 136 147 139 138
30 11 357 339 12 16 312 82 27 1 357 359 347 339 339 344 336 332 331 344 354 357 120 151 160 170 170 174 154 147 139 146 155 154 156 153 161 150 163 162 161 147 164 155 127 117 92 114 147